Weather History for Oxnard, CA

Change the Weather History Date:

Thursday, February 20, 2014

  Actual Average Record
Temperature  
Mean Temperature 64 °F -  
Max Temperature 81 °F 67 °F 84 °F (1954)
Min Temperature 48 °F 46 °F 35 °F (1953)
Growing Degree Days 14 (Base 50)    
Moisture  
Dew Point 38 °F    
Average Humidity 49    
Maximum Humidity 86    
Minimum Humidity 11    
Precipitation  
Precipitation 0.00 in - - ()
Sea Level Pressure  
Sea Level Pressure 29.98 in    
Wind  
Wind Speed 5 mph (NNE)    
Max Wind Speed 23 mph    
Max Gust Speed 30 mph    
Visibility 10 miles    
Events      
Averages and records for this station are not official NWS values.
T = Trace of Precipitation, MM = Missing Value Source: NWS Daily Summary

Daily Weather History Graph

Daily Weather History Graph

Search for Another Location

Airport:

Trip Planner

Search our weather history database for the weather conditions in past years. The results will help you decide how hot, cold, wet, or windy it might be!

Date:

Astronomy

Feb. 20, 2014 Rise Set
Actual Time 6:36 AM PST 5:45 PM PST
Civil Twilight 6:10 AM PST 6:10 PM PST
Nautical Twilight 5:41 AM PST 6:39 PM PST
Astronomical Twilight 5:12 AM PST 7:09 PM PST
Moon 11:27 PM PST 9:38 AM PST
Length of Visible Light 11h 59m
Length of Day
11h 09m
Waning Gibbous, 70% of the Moon is Illuminated
Feb 20
Waning Gibbous
Feb 22
Last Quarter
Mar 1
New
Mar 8
First Quarter
Mar 16
Full

Hourly Weather History & Observations

Time (PST) Temp. Dew Point Humidity Pressure Visibility Wind Dir Wind Speed Gust Speed Precip Events Conditions
12:51 AM 51.1 °F 46.9 °F 86% 29.95 in 8.0 mi Calm Calm - N/A   Clear
1:51 AM 48.9 °F 44.1 °F 83% 29.97 in 10.0 mi Calm Calm - N/A   Clear
2:51 AM 48.0 °F 41.0 °F 77% 29.96 in 10.0 mi Calm Calm - N/A   Clear
3:51 AM 48.9 °F 37.9 °F 66% 29.96 in 10.0 mi ENE 8.1 mph - N/A   Clear
4:51 AM 52.0 °F 37.0 °F 57% 29.96 in 10.0 mi NNE 4.6 mph - N/A   Clear
5:51 AM 52.0 °F 36.0 °F 54% 29.96 in 10.0 mi North 5.8 mph - N/A   Clear
6:51 AM 52.0 °F 35.1 °F 53% 29.99 in 10.0 mi NE 4.6 mph - N/A   Clear
7:51 AM 57.9 °F 35.1 °F 42% 30.00 in 10.0 mi NNE 6.9 mph - N/A   Clear
8:51 AM 68.0 °F 35.1 °F 30% 30.01 in 10.0 mi NNE 5.8 mph - N/A   Clear
9:51 AM 75.9 °F 28.9 °F 18% 30.02 in 10.0 mi NE 12.7 mph 17.3 mph N/A   Clear
10:51 AM 78.1 °F 26.1 °F 15% 30.02 in 10.0 mi ENE 23.0 mph 29.9 mph N/A   Clear
11:51 AM 80.1 °F 24.1 °F 13% 30.01 in 10.0 mi East 18.4 mph 28.8 mph N/A   Clear
12:51 PM 81.0 °F 21.9 °F 11% 29.98 in 10.0 mi East 16.1 mph - N/A   Clear
1:51 PM 70.0 °F 45.0 °F 41% 29.99 in 10.0 mi WSW 10.4 mph - N/A   Clear
2:51 PM 71.1 °F 37.0 °F 29% 29.98 in 10.0 mi West 9.2 mph - N/A   Clear
3:51 PM 69.1 °F 39.0 °F 33% 29.97 in 10.0 mi WNW 10.4 mph - N/A   Clear
4:51 PM 66.9 °F 42.1 °F 40% 29.97 in 10.0 mi WNW 6.9 mph - N/A   Clear
5:51 PM 62.1 °F 48.0 °F 60% 29.98 in 10.0 mi West 8.1 mph - N/A   Clear
6:51 PM 62.1 °F 48.0 °F 60% 29.98 in 10.0 mi SW 3.5 mph - N/A   Clear
7:51 PM 59.0 °F 50.0 °F 72% 29.98 in 10.0 mi Calm Calm - N/A   Clear
8:51 PM 57.9 °F 48.0 °F 70% 29.99 in 10.0 mi Calm Calm - N/A   Clear
9:51 PM 53.1 °F 45.0 °F 74% 29.99 in 10.0 mi North 3.5 mph - N/A   Clear
10:51 PM 55.9 °F 39.9 °F 55% 29.98 in 10.0 mi North 3.5 mph - N/A   Clear
11:51 PM 59.0 °F 27.0 °F 29% 29.97 in 10.0 mi NNE 8.1 mph - N/A   Clear